Time,TemperatureF,DewpointF,PressureIn,WindDirection,WindDirectionDegrees,WindSpeedMPH,WindSpeedGustMPH,Humidity,HourlyPrecipIn,Conditions,Clouds,dailyrainin,SoftwareType,DateUTC
2013-09-03 00:13:00,83.9,63.0,29.82,NW,311,6.0,10.0,50,0.00,,,0.00,weatherlink.com 1.10,2013-09-03 07:13:00,
2013-09-03 00:28:00,83.2,64.0,29.82,NNW,337,10.0,10.0,52,0.00,,,0.00,weatherlink.com 1.10,2013-09-03 07:28:00,
2013-09-03 00:43:00,82.1,63.0,29.82,NW,319,4.0,12.0,53,0.00,,,0.00,weatherlink.com 1.10,2013-09-03 07:43:00,
2013-09-03 00:58:00,81.9,63.0,29.83,North,360,5.0,11.0,53,0.00,,,0.00,weatherlink.com 1.10,2013-09-03 07:58:00,
2013-09-03 01:13:00,81.7,63.0,29.83,North,360,6.0,10.0,53,0.00,,,0.00,weatherlink.com 1.10,2013-09-03 08:13:00,
2013-09-03 01:28:00,81.5,63.0,29.83,NW,310,5.0,10.0,53,0.00,,,0.00,weatherlink.com 1.10,2013-09-03 08:28:00,
2013-09-03 01:43:00,81.2,62.0,29.83,NW,318,4.0,7.0,52,0.00,,,0.00,weatherlink.com 1.10,2013-09-03 08:43:00,
2013-09-03 01:58:00,80.7,62.0,29.83,NW,311,4.0,9.0,53,0.00,,,0.00,weatherlink.com 1.10,2013-09-03 08:58:00,
2013-09-03 02:13:00,80.4,62.0,29.82,NW,317,4.0,8.0,53,0.00,,,0.00,weatherlink.com 1.10,2013-09-03 09:13:00,
2013-09-03 02:28:00,80.0,61.0,29.83,NW,324,3.0,7.0,53,0.00,,,0.00,weatherlink.com 1.10,2013-09-03 09:28:00,
2013-09-03 02:43:00,79.5,61.0,29.84,WNW,284,0.0,6.0,54,0.00,,,0.00,weatherlink.com 1.10,2013-09-03 09:43:00,
2013-09-03 02:58:00,78.8,61.0,29.84,SSW,213,3.0,7.0,55,0.00,,,0.00,weatherlink.com 1.10,2013-09-03 09:58:00,
2013-09-03 03:13:00,77.5,61.0,29.85,SW,223,4.0,7.0,57,0.00,,,0.00,weatherlink.com 1.10,2013-09-03 10:13:00,
2013-09-03 03:28:00,76.7,60.0,29.85,SSW,194,3.0,8.0,57,0.00,,,0.00,weatherlink.com 1.10,2013-09-03 10:28:00,
2013-09-03 03:43:00,76.4,60.0,29.85,SW,221,3.0,5.0,57,0.00,,,0.00,weatherlink.com 1.10,2013-09-03 10:43:00,
2013-09-03 03:58:00,76.1,60.0,29.86,SW,221,2.0,5.0,57,0.00,,,0.00,weatherlink.com 1.10,2013-09-03 10:58:00,
2013-09-03 04:13:00,75.9,60.0,29.86,SW,230,3.0,4.0,58,0.00,,,0.00,weatherlink.com 1.10,2013-09-03 11:13:00,
2013-09-03 04:28:00,75.6,60.0,29.86,WSW,257,2.0,4.0,58,0.00,,,0.00,weatherlink.com 1.10,2013-09-03 11:28:00,
2013-09-03 04:43:00,75.2,60.0,29.86,West,261,0.0,3.0,59,0.00,,,0.00,weatherlink.com 1.10,2013-09-03 11:43:00,
2013-09-03 04:58:00,75.0,60.0,29.86,West,261,2.0,3.0,59,0.00,,,0.00,weatherlink.com 1.10,2013-09-03 11:58:00,
2013-09-03 05:13:00,74.7,60.0,29.87,West,261,1.0,2.0,60,0.00,,,0.00,weatherlink.com 1.10,2013-09-03 12:13:00,
2013-09-03 05:28:00,74.3,59.0,29.87,West,261,0.0,2.0,60,0.00,,,0.00,weatherlink.com 1.10,2013-09-03 12:28:00,
2013-09-03 05:43:00,74.0,60.0,29.87,West,261,1.0,2.0,61,0.00,,,0.00,weatherlink.com 1.10,2013-09-03 12:43:00,
2013-09-03 05:58:00,74.0,60.0,29.87,West,261,0.0,2.0,61,0.00,,,0.00,weatherlink.com 1.10,2013-09-03 12:58:00,
2013-09-03 06:13:00,73.8,60.0,29.88,West,261,0.0,0.0,62,0.00,,,0.00,weatherlink.com 1.10,2013-09-03 13:13:00,
2013-09-03 06:28:00,73.1,60.0,29.88,SW,228,1.0,2.0,64,0.00,,,0.00,weatherlink.com 1.10,2013-09-03 13:28:00,
2013-09-03 06:43:00,72.7,60.0,29.89,SE,144,1.0,4.0,65,0.00,,,0.00,weatherlink.com 1.10,2013-09-03 13:43:00,
2013-09-03 06:59:00,72.5,60.0,29.89,SSE,150,1.0,2.0,65,0.00,,,0.00,weatherlink.com 1.10,2013-09-03 13:59:00,
2013-09-03 07:14:00,73.2,60.0,29.90,SSE,150,1.0,4.0,64,0.00,,,0.00,weatherlink.com 1.10,2013-09-03 14:14:00,
2013-09-03 07:29:00,73.9,60.0,29.90,South,179,1.0,3.0,63,0.00,,,0.00,weatherlink.com 1.10,2013-09-03 14:29:00,
2013-09-03 07:44:00,74.7,61.0,29.90,SSE,158,2.0,4.0,62,0.00,,,0.00,weatherlink.com 1.10,2013-09-03 14:44:00,
2013-09-03 07:59:00,75.6,61.0,29.91,SSE,161,2.0,5.0,60,0.00,,,0.00,weatherlink.com 1.10,2013-09-03 14:59:00,
2013-09-03 08:14:00,76.1,61.0,29.91,South,179,2.0,6.0,60,0.00,,,0.00,weatherlink.com 1.10,2013-09-03 15:14:00,
2013-09-03 08:29:00,76.6,61.0,29.91,South,183,2.0,8.0,58,0.00,,,0.00,weatherlink.com 1.10,2013-09-03 15:29:00,
2013-09-03 08:44:00,77.2,61.0,29.91,SSW,212,3.0,6.0,57,0.00,,,0.00,weatherlink.com 1.10,2013-09-03 15:44:00,
2013-09-03 08:59:00,78.4,61.0,29.92,South,170,4.0,9.0,55,0.00,,,0.00,weatherlink.com 1.10,2013-09-03 15:59:00,
2013-09-03 09:14:00,77.7,61.0,29.92,SSE,155,1.0,11.0,56,0.00,,,0.00,weatherlink.com 1.10,2013-09-03 16:14:00,
2013-09-03 09:29:00,78.2,61.0,29.93,SSE,155,4.0,11.0,55,0.00,,,0.00,weatherlink.com 1.10,2013-09-03 16:29:00,
2013-09-03 09:44:00,78.8,60.0,29.93,South,186,8.0,10.0,53,0.00,,,0.00,weatherlink.com 1.10,2013-09-03 16:44:00,
2013-09-03 09:59:00,79.3,60.0,29.93,SSW,193,3.0,9.0,51,0.00,,,0.00,weatherlink.com 1.10,2013-09-03 16:59:00,
2013-09-03 10:14:00,79.8,59.0,29.93,SSW,203,3.0,10.0,50,0.00,,,0.00,weatherlink.com 1.10,2013-09-03 17:14:00,
2013-09-03 10:29:00,80.1,59.0,29.93,SSW,202,3.0,7.0,49,0.00,,,0.00,weatherlink.com 1.10,2013-09-03 17:29:00,
2013-09-03 10:44:00,80.8,60.0,29.92,South,190,4.0,7.0,49,0.00,,,0.00,weatherlink.com 1.10,2013-09-03 17:44:00,
2013-09-03 10:59:00,81.4,59.0,29.92,SSW,209,4.0,7.0,47,0.00,,,0.00,weatherlink.com 1.10,2013-09-03 17:59:00,
2013-09-03 11:14:00,82.4,60.0,29.92,SSE,163,6.0,9.0,47,0.00,,,0.00,weatherlink.com 1.10,2013-09-03 18:14:00,
2013-09-03 11:29:00,82.4,60.0,29.91,South,175,3.0,9.0,47,0.00,,,0.00,weatherlink.com 1.10,2013-09-03 18:29:00,
2013-09-03 11:44:00,83.1,60.0,29.91,WSW,245,1.0,8.0,46,0.00,,,0.00,weatherlink.com 1.10,2013-09-03 18:44:00,
2013-09-03 11:59:00,84.2,61.0,29.90,SSE,154,4.0,7.0,45,0.00,,,0.00,weatherlink.com 1.10,2013-09-03 18:59:00,
2013-09-03 12:14:00,84.9,61.0,29.89,West,261,4.0,6.0,44,0.00,,,0.00,weatherlink.com 1.10,2013-09-03 19:14:00,
2013-09-03 12:29:00,85.9,60.0,29.89,SSW,200,1.0,5.0,42,0.00,,,0.00,weatherlink.com 1.10,2013-09-03 19:29:00,
2013-09-03 12:59:00,86.7,61.0,29.88,NW,317,4.0,7.0,42,0.00,,,0.00,weatherlink.com 1.10,2013-09-03 19:59:00,
2013-09-03 13:14:00,86.5,61.0,29.87,SW,236,4.0,7.0,42,0.00,,,0.00,weatherlink.com 1.10,2013-09-03 20:14:00,
2013-09-03 13:29:00,88.3,61.0,29.87,WNW,303,3.0,8.0,40,0.00,,,0.00,weatherlink.com 1.10,2013-09-03 20:29:00,
2013-09-03 13:44:00,87.7,61.0,29.86,ENE,73,3.0,7.0,40,0.00,,,0.00,weatherlink.com 1.10,2013-09-03 20:44:00,
2013-09-03 13:59:00,88.7,61.0,29.85,ESE,104,3.0,7.0,39,0.00,,,0.00,weatherlink.com 1.10,2013-09-03 20:59:00,
2013-09-03 14:14:00,90.2,61.0,29.85,WSW,238,7.0,11.0,38,0.00,,,0.00,weatherlink.com 1.10,2013-09-03 21:14:00,
2013-09-03 14:29:00,89.7,62.0,29.85,WSW,248,4.0,10.0,39,0.00,,,0.00,weatherlink.com 1.10,2013-09-03 21:29:00,
2013-09-03 14:44:00,89.9,62.0,29.84,NW,316,0.0,7.0,39,0.00,,,0.00,weatherlink.com 1.10,2013-09-03 21:44:00,
2013-09-03 14:59:00,90.0,60.0,29.84,SSW,206,1.0,10.0,37,0.00,,,0.00,weatherlink.com 1.10,2013-09-03 21:59:00,
2013-09-03 15:14:00,91.4,61.0,29.83,NW,304,6.0,9.0,36,0.00,,,0.00,weatherlink.com 1.10,2013-09-03 22:14:00,
2013-09-03 15:29:00,90.4,60.0,29.83,NW,307,5.0,9.0,36,0.00,,,0.00,weatherlink.com 1.10,2013-09-03 22:29:00,
2013-09-03 15:44:00,91.2,60.0,29.83,WNW,286,5.0,11.0,35,0.00,,,0.00,weatherlink.com 1.10,2013-09-03 22:44:00,
2013-09-03 15:59:00,90.8,60.0,29.82,WNW,292,4.0,9.0,36,0.00,,,0.00,weatherlink.com 1.10,2013-09-03 22:59:00,
2013-09-03 16:14:00,90.8,60.0,29.82,WSW,251,5.0,10.0,36,0.00,,,0.00,weatherlink.com 1.10,2013-09-03 23:14:00,
2013-09-03 16:29:00,91.3,60.0,29.82,WSW,242,7.0,12.0,35,0.00,,,0.00,weatherlink.com 1.10,2013-09-03 23:29:00,
2013-09-03 16:44:00,91.3,60.0,29.82,SW,236,2.0,8.0,35,0.00,,,0.00,weatherlink.com 1.10,2013-09-03 23:44:00,
2013-09-03 16:59:00,91.5,60.0,29.81,SW,231,6.0,11.0,35,0.00,,,0.00,weatherlink.com 1.10,2013-09-03 23:59:00,
2013-09-03 17:14:00,91.1,60.0,29.81,SW,235,7.0,11.0,35,0.00,,,0.00,weatherlink.com 1.10,2013-09-04 00:14:00,
2013-09-03 17:29:00,91.0,60.0,29.81,WSW,248,5.0,9.0,35,0.00,,,0.00,weatherlink.com 1.10,2013-09-04 00:29:00,
2013-09-03 17:44:00,90.5,61.0,29.81,WSW,253,4.0,11.0,37,0.00,,,0.00,weatherlink.com 1.10,2013-09-04 00:44:00,
2013-09-03 17:59:00,90.4,61.0,29.81,SW,236,6.0,9.0,37,0.00,,,0.00,weatherlink.com 1.10,2013-09-04 00:59:00,
2013-09-03 18:14:00,89.4,61.0,29.81,WSW,248,7.0,12.0,38,0.00,,,0.00,weatherlink.com 1.10,2013-09-04 01:14:00,
2013-09-03 18:29:00,89.2,60.0,29.81,WSW,246,7.0,11.0,38,0.00,,,0.00,weatherlink.com 1.10,2013-09-04 01:29:00,
2013-09-03 18:44:00,88.6,61.0,29.81,WSW,254,3.0,9.0,39,0.00,,,0.00,weatherlink.com 1.10,2013-09-04 01:44:00,
2013-09-03 18:59:00,88.0,61.0,29.81,WSW,250,6.0,9.0,40,0.00,,,0.00,weatherlink.com 1.10,2013-09-04 01:59:00,
2013-09-03 19:14:00,87.3,60.0,29.82,SW,220,3.0,9.0,40,0.00,,,0.00,weatherlink.com 1.10,2013-09-04 02:14:00,
2013-09-03 19:29:00,86.8,60.0,29.83,West,259,4.0,6.0,41,0.00,,,0.00,weatherlink.com 1.10,2013-09-04 02:29:00,
2013-09-03 19:44:00,86.3,61.0,29.83,WSW,246,3.0,5.0,42,0.00,,,0.00,weatherlink.com 1.10,2013-09-04 02:44:00,
2013-09-03 19:59:00,85.9,60.0,29.83,WNW,290,3.0,5.0,42,0.00,,,0.00,weatherlink.com 1.10,2013-09-04 02:59:00,
2013-09-03 20:14:00,85.3,60.0,29.84,West,268,2.0,3.0,43,0.00,,,0.00,weatherlink.com 1.10,2013-09-04 03:14:00,
2013-09-03 20:29:00,84.7,60.0,29.84,WNW,296,2.0,2.0,44,0.00,,,0.00,weatherlink.com 1.10,2013-09-04 03:29:00,
2013-09-03 20:44:00,84.2,60.0,29.84,WNW,296,2.0,3.0,44,0.00,,,0.00,weatherlink.com 1.10,2013-09-04 03:44:00,
2013-09-03 20:59:00,84.1,61.0,29.85,WNW,296,0.0,2.0,45,0.00,,,0.00,weatherlink.com 1.10,2013-09-04 03:59:00,
2013-09-03 21:14:00,84.1,61.0,29.85,WNW,296,0.0,1.0,46,0.00,,,0.00,weatherlink.com 1.10,2013-09-04 04:14:00,
2013-09-03 21:29:00,83.6,60.0,29.85,WNW,296,0.0,1.0,45,0.00,,,0.00,weatherlink.com 1.10,2013-09-04 04:29:00,
2013-09-03 21:44:00,82.7,60.0,29.86,WNW,296,1.0,1.0,46,0.00,,,0.00,weatherlink.com 1.10,2013-09-04 04:44:00,
2013-09-03 21:59:00,82.0,60.0,29.86,NE,53,1.0,3.0,48,0.00,,,0.00,weatherlink.com 1.10,2013-09-04 04:59:00,
2013-09-03 22:14:00,81.5,60.0,29.86,NE,54,0.0,1.0,49,0.00,,,0.00,weatherlink.com 1.10,2013-09-04 05:14:00,
2013-09-03 22:29:00,81.1,60.0,29.86,NE,53,1.0,2.0,49,0.00,,,0.00,weatherlink.com 1.10,2013-09-04 05:29:00,
2013-09-03 22:44:00,81.1,60.0,29.86,NE,53,0.0,2.0,49,0.00,,,0.00,weatherlink.com 1.10,2013-09-04 05:44:00,
2013-09-03 22:59:00,80.9,60.0,29.87,NE,53,0.0,0.0,50,0.00,,,0.00,weatherlink.com 1.10,2013-09-04 05:59:00,
2013-09-03 23:14:00,80.6,61.0,29.87,NE,53,0.0,1.0,51,0.00,,,0.00,weatherlink.com 1.10,2013-09-04 06:14:00,
2013-09-03 23:29:00,80.1,60.0,29.87,NE,53,0.0,1.0,51,0.00,,,0.00,weatherlink.com 1.10,2013-09-04 06:29:00,
2013-09-03 23:44:00,79.7,60.0,29.87,NE,53,0.0,2.0,52,0.00,,,0.00,weatherlink.com 1.10,2013-09-04 06:44:00,
2013-09-03 23:59:00,79.4,61.0,29.87,NE,53,0.0,0.0,53,0.00,,,0.00,weatherlink.com 1.10,2013-09-04 06:59:00,